Regional Weather Roundup
Issued by NWS Jackson, KY

Home | Current Version | Previous Version | Text Only | Print | Product List | Glossary Off
Versions: 1 2 3 4 5 6 7 8 9 10 11 12 13 14 15 16 17 18 19 20 21 22 23 24 25 26 27 28 29 30 31 32 33 34 35 36 37 38 39 40 41 42 43 44 45 46 47 48 49 50

232
ASUS43 KJKL 180610
RWRJKL

EAST KENTUCKY HOURLY WEATHER ROUNDUP
NATIONAL WEATHER SERVICE JACKSON KY
200 AM EDT FRI AUG 18 2017

NOTE: "FAIR" INDICATES FEW OR NO CLOUDS BELOW 12,000 FEET WITH
NO SIGNIFICANT WEATHER AND/OR OBSTRUCTIONS TO VISIBILITY.

* THESE REPORTS ARE NOT UNDER NWS QUALITY CONTROL AND MAY NOT
  REPORT WEATHER SUCH AS PRECIPITATION AND FOG.

KYZ079-080-083-085-087-088-110-112-115-119-120-180700
...EASTERN KENTUCKY...

CITY           SKY/WX    TMP DP  RH WIND       PRES   REMARKS
JACKSON        PTCLDY    75  70  84 CALM      29.93F
6HR MIN TEMP:  75; 6HR MAX TEMP:  82;

LONDON         PTCLDY    76  69  79 S5        29.94F
6HR MIN TEMP:  76; 6HR MAX TEMP:  84;

SOMERSET*      CLOUDY    73  70  88 S5        29.93F
MONTICELLO*    LGT RAIN  77  72  84 VRB7      29.94F
6HR MIN TEMP:  73; 6HR MAX TEMP:  82; 6HR PCP:  0.01;

WILLIAMSBURG*  PTCLDY    75  72  88 SW3       29.95F
MIDDLESBORO*   CLEAR     71  71 100 CALM      29.97F
6HR MIN TEMP:  71; 6HR MAX TEMP:  83;

HARLAN APT*    CLOUDY    72  70  94 CALM      29.98F VSB 1/4
PIKE CO APT*     N/A     75  75  99 SW5       29.96S
BIG SANDY APT* PTCLDY    77  73  90 SW5       29.94F
6HR MIN TEMP:  77; 6HR MAX TEMP:  85;

MOREHEAD APT*  RAIN      73  72  94 SW8       29.92F
$$

KYZ035-036-041-042-044-050-067-078-099-180700
...CENTRAL KENTUCKY...

CITY           SKY/WX    TMP DP  RH WIND       PRES   REMARKS
MT STERLING*   LGT RAIN  72  72 100 W6        29.93F
FLEMING/MASON* CLOUDY    72  72  98 SW8       29.90F
DANVILLE*      HVY RAIN  72  72 100 S3        29.93F
LEXINGTON      CLOUDY    73  71  93 S9        29.90F
6HR MIN TEMP:  73; 6HR MAX TEMP:  83; 6HR PCP:  0.55;

FRANKFORT      MOCLDY    74  71  91 SW6       29.87F
6HR MIN TEMP:  74; 6HR MAX TEMP:  82; 6HR PCP:  0.39;

LOUISVILLE     MOCLDY    76  73  91 SW7       29.86F
6HR MIN TEMP:  75; 6HR MAX TEMP:  77; 6HR PCP: TRACE;

LEBANON*         N/A     73  73 100 CALM      29.90F
GLASGOW*       CLOUDY    75  75 100 SW5       29.91S
BOWLING GREEN  MOCLDY    77  76  96 SW6       29.91S
6HR MIN TEMP:  77; 6HR MAX TEMP:  85; 6HR PCP:  0.19;

$$

KYZ091>093-OHZ055-061-077-WVZ005-015-034-035-042-180700
...SOUTHERN OHIO/WEST VIRGINIA...

CITY           SKY/WX    TMP DP  RH WIND       PRES   REMARKS
COVINGTON      CLOUDY    74  74 100 SW8       29.86F
COLUMBUS       CLOUDY    75  74  96 S5        29.84F
DAYTON         MOCLDY    73  72  96 SW9       29.86F
WILMINGTON     CLOUDY    73  73 100 SW9       29.86F
HUNTINGTON     CLOUDY    77  72  84 S3        29.89F
CHARLESTON     CLOUDY    77  71  82 S3        29.90F
PINEVILLE*     PTCLDY    69  68  96 MISG      30.03F
BECKLEY        CLEAR     71  68  90 SW7       30.02F
BLUEFIELD      CLEAR     69  65  86 SW7       30.06F
LOGAN CO APT*    N/A     75  72  88 CALM      29.96F
$$

VAZ002-007-008-TNZ017-027-036-066-071-180700
...SOUTHWEST VIRGINIA/EAST TENNESSEE...

CITY           SKY/WX    TMP DP  RH WIND       PRES   REMARKS
WISE*          CLEAR     72  72 100 SW9       30.05F
JONESVILLE*      N/A     70  70 100 CALM      30.00  FOG
ABINGDON*      CLEAR     71  71  99 CALM      30.03F
BRISTOL        PTCLDY    70  70 100 CALM      29.99F
MORRISTOWN*    CLEAR     73  72  94 CALM      29.97S
SEVIERVILLE*   CLEAR     72  68  88 CALM      29.96F
KNOXVILLE      CLEAR     75  70  84 SW7       29.96S
LAFOLLETTE*    MOCLDY    73  72  94 CALM      30.00S
OAK RIDGE      CLEAR     76  72  87 CALM      29.98S
CROSSVILLE     MOCLDY    74  70  87 VRB6      30.02F
NASHVILLE      CLOUDY    77  73  87 S7        29.95R
$$

...KEY TO REMARKS...
VSB - VISIBILITY IN MILES
WCI - WIND CHILL INDEX
HX  - HEAT INDEX

$$




USA.gov is the U.S. government's official web portal to all federal, state and local government web resources and services.